Weather History for York, NE

Change the Weather History Date:

Sunday, April 14, 2013

  Actual Average Record
Temperature  
Mean Temperature 49 °F -  
Max Temperature 59 °F 61 °F 89 °F (2002)
Min Temperature 37 °F 37 °F 17 °F (1950)
Degree Days  
Heating Degree Days 16    
Moisture  
Dew Point 40 °F    
Average Humidity 72    
Maximum Humidity 100    
Minimum Humidity 42    
Precipitation  
Precipitation 0.00 in - - ()
Sea Level Pressure  
Sea Level Pressure 29.48 in    
Wind  
Wind Speed 18 mph (West)    
Max Wind Speed 28 mph    
Max Gust Speed 34 mph    
Visibility 10 miles    
Events Thunderstorm    
Averages and records for this station are not official NWS values.
T = Trace of Precipitation, MM = Missing Value Source: NWS Daily Summary

Daily Weather History Graph

Daily Weather History Graph

Search for Another Location

Airport:

Trip Planner

Search our weather history database for the weather conditions in past years. The results will help you decide how hot, cold, wet, or windy it might be!

Date:

Astronomy

Apr. 14, 2013 Rise Set
Actual Time 6:52 AM CDT 8:09 PM CDT
Civil Twilight 6:24 AM CDT 8:37 PM CDT
Nautical Twilight 5:50 AM CDT 9:12 PM CDT
Astronomical Twilight 5:14 AM CDT 9:47 PM CDT
Moon 9:29 AM CDT (4/14) No Moon Set
Length of Visible Light 14h 13m
Length of Day
13h 16m
Waxing Crescent, 17% of the Moon is Illuminated
Apr 14
Waxing Crescent
Apr 18
First Quarter
Apr 25
Full
May 2
Last Quarter
May 9
New

Hourly Weather History & Observations

Time (CDT) Temp. Windchill Dew Point Humidity Pressure Visibility Wind Dir Wind Speed Gust Speed Precip Events Conditions
12:15 AM 48.2 °F - 44.6 °F 87% 29.57 in 10.0 mi East 23.0 mph 27.6 mph N/A Thunderstorm Overcast
12:35 AM 48.2 °F - 42.8 °F 82% 29.55 in 10.0 mi East 26.5 mph 34.5 mph N/A   Overcast
12:55 AM 48.2 °F - 41.0 °F 76% 29.55 in 10.0 mi East 23.0 mph 32.2 mph N/A   Overcast
1:15 AM 46.4 °F 38.5 °F 41.0 °F 81% 29.54 in 10.0 mi East 21.9 mph - N/A Thunderstorm Overcast
1:35 AM 44.6 °F 36.1 °F 41.0 °F 87% 29.53 in 10.0 mi East 21.9 mph 27.6 mph N/A   Overcast
1:55 AM 44.6 °F 35.9 °F 41.0 °F 87% 29.51 in 10.0 mi East 23.0 mph 31.1 mph N/A   Overcast
2:15 AM 42.8 °F 34.5 °F 39.2 °F 87% 29.50 in 10.0 mi East 18.4 mph 29.9 mph N/A   Mostly Cloudy
2:35 AM 42.8 °F 34.0 °F 41.0 °F 93% 29.49 in 10.0 mi East 20.7 mph 26.5 mph N/A   Mostly Cloudy
2:55 AM 42.8 °F 33.5 °F 41.0 °F 93% 29.46 in 10.0 mi East 23.0 mph 26.5 mph N/A   Scattered Clouds
3:15 AM 42.8 °F 34.5 °F 41.0 °F 93% 29.45 in 10.0 mi East 18.4 mph - N/A   Clear
3:35 AM 41.0 °F 32.5 °F 41.0 °F 100% 29.45 in 10.0 mi East 17.3 mph - N/A   Clear
3:55 AM 41.0 °F 31.9 °F 39.2 °F 93% 29.44 in 10.0 mi East 19.6 mph - N/A   Clear
4:15 AM 41.0 °F 33.1 °F 39.2 °F 93% 29.43 in 10.0 mi East 15.0 mph 23.0 mph N/A   Clear
4:35 AM 41.0 °F 32.2 °F 39.2 °F 93% 29.41 in 10.0 mi East 18.4 mph - N/A   Clear
4:55 AM 41.0 °F 31.9 °F 39.2 °F 93% 29.39 in 10.0 mi East 19.6 mph 23.0 mph N/A   Clear
5:15 AM 41.0 °F 32.5 °F 39.2 °F 93% 29.37 in 10.0 mi ESE 17.3 mph 23.0 mph N/A   Clear
5:35 AM 41.0 °F 33.1 °F 41.0 °F 100% 29.37 in 10.0 mi ESE 15.0 mph - N/A   Clear
5:55 AM 42.8 °F 35.8 °F 41.0 °F 93% 29.35 in 10.0 mi ESE 13.8 mph - N/A   Clear
6:15 AM 42.8 °F 36.6 °F 41.0 °F 93% 29.35 in 10.0 mi ESE 11.5 mph - N/A   Clear
6:35 AM 42.8 °F 37.0 °F 41.0 °F 93% 29.34 in 10.0 mi East 10.4 mph - N/A   Clear
7:15 AM 44.6 °F 39.2 °F 41.0 °F 87% 29.31 in 10.0 mi ESE 10.4 mph - N/A   Clear
7:35 AM 46.4 °F 41.5 °F 44.6 °F 93% 29.31 in 10.0 mi SE 10.4 mph - N/A   Clear
7:55 AM 48.2 °F - 44.6 °F 87% 29.30 in 10.0 mi SE 11.5 mph - N/A   Clear
8:15 AM 50.0 °F - 46.4 °F 87% 29.30 in 10.0 mi SSE 9.2 mph - N/A   Clear
8:35 AM 53.6 °F - 48.2 °F 82% 29.29 in 10.0 mi SSE 9.2 mph - N/A   Clear
8:55 AM 57.2 °F - 48.2 °F 72% 29.29 in 10.0 mi South 12.7 mph - N/A   Clear
9:15 AM 59.0 °F - 50.0 °F 72% 29.29 in 10.0 mi South 16.1 mph - N/A   Clear
9:35 AM 59.0 °F - 50.0 °F 72% 29.28 in 10.0 mi SSW 16.1 mph - N/A   Clear
9:55 AM 59.0 °F - 50.0 °F 72% 29.28 in 10.0 mi WSW 17.3 mph 21.9 mph N/A   Clear
10:15 AM 53.6 °F - 50.0 °F 88% 29.30 in 10.0 mi NW 17.3 mph - N/A   Clear
10:35 AM 55.4 °F - 50.0 °F 82% 29.31 in 10.0 mi NW 13.8 mph - N/A   Clear
10:55 AM 55.4 °F - 50.0 °F 82% 29.32 in 10.0 mi WNW 15.0 mph - N/A   Clear
11:15 AM 53.6 °F - 48.2 °F 82% 29.35 in 10.0 mi WNW 18.4 mph - N/A   Partly Cloudy
11:35 AM 51.8 °F - 48.2 °F 88% 29.38 in 10.0 mi West 27.6 mph - N/A   Scattered Clouds
11:55 AM 51.8 °F - 46.4 °F 82% 29.40 in 10.0 mi WNW 25.3 mph 31.1 mph N/A   Partly Cloudy
12:15 PM 51.8 °F - 46.4 °F 82% 29.41 in 10.0 mi WNW 18.4 mph - N/A   Clear
12:35 PM 51.8 °F - 46.4 °F 82% 29.43 in 10.0 mi West 17.3 mph 23.0 mph N/A   Clear
12:55 PM 53.6 °F - 46.4 °F 77% 29.41 in 10.0 mi WNW 18.4 mph - N/A   Clear
1:15 PM 55.4 °F - 44.6 °F 67% 29.42 in 10.0 mi WNW 17.3 mph 20.7 mph N/A   Clear
1:35 PM 55.4 °F - 41.0 °F 58% 29.45 in 10.0 mi WNW 18.4 mph 29.9 mph N/A   Clear
1:55 PM 55.4 °F - 39.2 °F 54% 29.45 in 10.0 mi WNW 20.7 mph 29.9 mph N/A   Clear
2:15 PM 55.4 °F - 39.2 °F 54% 29.45 in 10.0 mi WNW 17.3 mph - N/A   Scattered Clouds
2:35 PM 57.2 °F - 39.2 °F 51% 29.47 in 10.0 mi West 18.4 mph 21.9 mph N/A   Mostly Cloudy
2:55 PM 55.4 °F - 39.2 °F 54% 29.48 in 10.0 mi West 18.4 mph 24.2 mph N/A   Scattered Clouds
3:15 PM 55.4 °F - 37.4 °F 51% 29.50 in 10.0 mi West 16.1 mph - N/A   Clear
3:35 PM 55.4 °F - 37.4 °F 51% 29.49 in 10.0 mi West 13.8 mph - N/A   Clear
3:55 PM 57.2 °F - 39.2 °F 51% 29.49 in 10.0 mi West 15.0 mph - N/A   Clear
4:15 PM 57.2 °F - 39.2 °F 51% 29.48 in 10.0 mi West 18.4 mph - N/A   Clear
4:35 PM 59.0 °F - 35.6 °F 42% 29.49 in 10.0 mi West 24.2 mph 31.1 mph N/A   Clear
4:55 PM 57.2 °F - 37.4 °F 48% 29.50 in 10.0 mi West 26.5 mph 32.2 mph N/A   Scattered Clouds
5:15 PM 55.4 °F - 35.6 °F 47% 29.51 in 10.0 mi WNW 20.7 mph 29.9 mph N/A   Partly Cloudy
5:35 PM 57.2 °F - 35.6 °F 44% 29.53 in 10.0 mi West 24.2 mph 28.8 mph N/A   Scattered Clouds
5:55 PM 55.4 °F - 35.6 °F 47% 29.55 in 10.0 mi WNW 18.4 mph - N/A   Scattered Clouds
6:15 PM 53.6 °F - 35.6 °F 51% 29.58 in 10.0 mi West 18.4 mph 26.5 mph N/A   Mostly Cloudy
6:35 PM 53.6 °F - 32.0 °F 44% 29.59 in 10.0 mi WNW 17.3 mph 27.6 mph N/A   Partly Cloudy
6:55 PM 53.6 °F - 33.8 °F 47% 29.59 in 10.0 mi West 15.0 mph 21.9 mph N/A   Partly Cloudy
7:15 PM 53.6 °F - 33.8 °F 47% 29.61 in 10.0 mi WNW 18.4 mph 23.0 mph N/A   Scattered Clouds
7:35 PM 51.8 °F - 32.0 °F 47% 29.62 in 10.0 mi WNW 16.1 mph - N/A   Partly Cloudy
7:55 PM 50.0 °F - 32.0 °F 50% 29.63 in 10.0 mi WNW 12.7 mph - N/A   Clear
8:15 PM 48.2 °F - 35.6 °F 62% 29.64 in 10.0 mi West 10.4 mph - N/A   Clear
8:35 PM 46.4 °F 41.5 °F 35.6 °F 66% 29.66 in 10.0 mi West 10.4 mph - N/A   Clear
8:55 PM 46.4 °F 41.1 °F 32.0 °F 57% 29.66 in 10.0 mi West 11.5 mph - N/A   Clear
9:15 PM 42.8 °F 38.0 °F 32.0 °F 66% 29.67 in 10.0 mi West 8.1 mph - N/A   Clear
9:35 PM 42.8 °F 37.0 °F 32.0 °F 66% 29.68 in 10.0 mi West 10.4 mph - N/A   Clear
9:55 PM 41.0 °F 34.7 °F 32.0 °F 70% 29.68 in 10.0 mi West 10.4 mph - N/A   Clear
10:15 PM 41.0 °F 34.3 °F 32.0 °F 70% 29.70 in 10.0 mi West 11.5 mph - N/A   Clear
10:35 PM 41.0 °F 34.7 °F 30.2 °F 65% 29.70 in 10.0 mi WSW 10.4 mph - N/A   Clear
10:55 PM 41.0 °F 34.3 °F 32.0 °F 70% 29.70 in 10.0 mi West 11.5 mph - N/A   Clear
11:15 PM 39.2 °F 32.0 °F 30.2 °F 70% 29.70 in 10.0 mi West 11.5 mph - N/A   Clear
11:35 PM 39.2 °F 32.0 °F 28.4 °F 65% 29.70 in 10.0 mi West 11.5 mph - N/A   Clear
11:55 PM 37.4 °F 30.3 °F 28.4 °F 70% 29.71 in 10.0 mi West 10.4 mph - N/A   Clear